#datetime,building,power
2023-06-02T00:00:00,mfh,32.29
2023-06-02T00:01:00,mfh,32.22
2023-06-02T00:02:00,mfh,32.78
2023-06-02T00:03:00,mfh,32.76
2023-06-02T00:04:00,mfh,32.77
2023-06-02T00:05:00,mfh,32.34
2023-06-02T00:06:00,mfh,32.37
2023-06-02T00:07:00,mfh,31.66
2023-06-02T00:08:00,mfh,31.84
2023-06-02T00:09:00,mfh,32.18
2023-06-02T00:10:00,mfh,31.77
2023-06-02T00:11:00,mfh,32.54
2023-06-02T00:12:00,mfh,32.54
2023-06-02T00:13:00,mfh,32.62
2023-06-02T00:14:00,mfh,32.54
2023-06-02T00:15:00,mfh,32.52
2023-06-02T00:16:00,mfh,31.79
2023-06-02T00:17:00,mfh,31.69
2023-06-02T00:18:00,mfh,31.78
2023-06-02T00:19:00,mfh,31.73
2023-06-02T00:20:00,mfh,32.80
2023-06-02T00:21:00,mfh,32.45
2023-06-02T00:22:00,mfh,32.45
2023-06-02T00:23:00,mfh,32.49
2023-06-02T00:24:00,mfh,32.40
2023-06-02T00:25:00,mfh,31.57
2023-06-02T00:26:00,mfh,31.66
2023-06-02T00:27:00,mfh,31.80
2023-06-02T00:28:00,mfh,32.39
2023-06-02T00:29:00,mfh,32.70
2023-06-02T00:30:00,mfh,32.23
2023-06-02T00:31:00,mfh,32.29
2023-06-02T00:32:00,mfh,32.55
2023-06-02T00:33:00,mfh,31.86
2023-06-02T00:34:00,mfh,31.60
2023-06-02T00:35:00,mfh,31.59
2023-06-02T00:36:00,mfh,31.53
2023-06-02T00:37:00,mfh,32.22
2023-06-02T00:38:00,mfh,32.22
2023-06-02T00:39:00,mfh,32.30
2023-06-02T00:40:00,mfh,32.37
2023-06-02T00:41:00,mfh,32.33
2023-06-02T00:42:00,mfh,31.86
2023-06-02T00:43:00,mfh,31.77
2023-06-02T00:44:00,mfh,31.79
2023-06-02T00:45:00,mfh,31.78
2023-06-02T00:46:00,mfh,32.28
2023-06-02T00:47:00,mfh,32.35
2023-06-02T00:48:00,mfh,32.38
2023-06-02T00:49:00,mfh,32.41
2023-06-02T00:50:00,mfh,32.43
2023-06-02T00:51:00,mfh,32.23
2023-06-02T00:52:00,mfh,31.77
2023-06-02T00:53:00,mfh,31.97
2023-06-02T00:54:00,mfh,31.92
2023-06-02T00:55:00,mfh,32.73
2023-06-02T00:56:00,mfh,32.80
2023-06-02T00:57:00,mfh,32.70
2023-06-02T00:58:00,mfh,32.79
2023-06-02T00:59:00,mfh,32.69
2023-06-02T01:00:00,mfh,32.01
2023-06-02T01:01:00,mfh,32.06
2023-06-02T01:02:00,mfh,32.03
2023-06-02T01:03:00,mfh,32.08
2023-06-02T01:04:00,mfh,33.56
2023-06-02T01:05:00,mfh,32.63
2023-06-02T01:06:00,mfh,32.62
2023-06-02T01:07:00,mfh,33.00
2023-06-02T01:08:00,mfh,32.34
2023-06-02T01:09:00,mfh,31.92
2023-06-02T01:10:00,mfh,31.83
2023-06-02T01:11:00,mfh,32.24
2023-06-02T01:12:00,mfh,32.48
2023-06-02T01:13:00,mfh,32.47
2023-06-02T01:14:00,mfh,32.51
2023-06-02T01:15:00,mfh,32.55
2023-06-02T01:16:00,mfh,32.66
2023-06-02T01:17:00,mfh,32.58
2023-06-02T01:18:00,mfh,31.82
2023-06-02T01:19:00,mfh,31.90
2023-06-02T01:20:00,mfh,32.00
2023-06-02T01:21:00,mfh,31.96
2023-06-02T01:22:00,mfh,32.60
2023-06-02T01:23:00,mfh,33.62
2023-06-02T01:24:00,mfh,32.58
2023-06-02T01:25:00,mfh,32.64
2023-06-02T01:26:00,mfh,32.75
2023-06-02T01:27:00,mfh,31.86
2023-06-02T01:28:00,mfh,31.81
2023-06-02T01:29:00,mfh,31.74
2023-06-02T01:30:00,mfh,32.39
2023-06-02T01:31:00,mfh,32.40
2023-06-02T01:32:00,mfh,32.37
2023-06-02T01:33:00,mfh,32.96
2023-06-02T01:34:00,mfh,32.51
2023-06-02T01:35:00,mfh,32.85
2023-06-02T01:36:00,mfh,31.79
2023-06-02T01:37:00,mfh,31.52
2023-06-02T01:38:00,mfh,31.55
2023-06-02T01:39:00,mfh,32.64
2023-06-02T01:40:00,mfh,32.22
2023-06-02T01:41:00,mfh,32.29
2023-06-02T01:42:00,mfh,32.25
2023-06-02T01:43:00,mfh,32.32
2023-06-02T01:44:00,mfh,31.63
2023-06-02T01:45:00,mfh,31.72
2023-06-02T01:46:00,mfh,32.17
2023-06-02T01:47:00,mfh,31.71
2023-06-02T01:48:00,mfh,32.29
2023-06-02T01:49:00,mfh,32.42
2023-06-02T01:50:00,mfh,32.41
2023-06-02T01:51:00,mfh,32.36
2023-06-02T01:52:00,mfh,32.46
2023-06-02T01:53:00,mfh,32.47
2023-06-02T01:54:00,mfh,32.02
2023-06-02T01:55:00,mfh,32.53
2023-06-02T01:56:00,mfh,32.11
2023-06-02T01:57:00,mfh,32.59
2023-06-02T01:58:00,mfh,32.58
2023-06-02T01:59:00,mfh,32.56
2023-06-02T02:00:00,mfh,32.57
2023-06-02T02:01:00,mfh,32.54
2023-06-02T02:02:00,mfh,31.86
2023-06-02T02:03:00,mfh,31.96
2023-06-02T02:04:00,mfh,31.87
2023-06-02T02:05:00,mfh,31.77
2023-06-02T02:06:00,mfh,32.50
2023-06-02T02:07:00,mfh,32.87
2023-06-02T02:08:00,mfh,32.48
2023-06-02T02:09:00,mfh,32.39
2023-06-02T02:10:00,mfh,32.40
2023-06-02T02:11:00,mfh,31.73
2023-06-02T02:12:00,mfh,31.82
2023-06-02T02:13:00,mfh,31.90
2023-06-02T02:14:00,mfh,31.90
2023-06-02T02:15:00,mfh,32.54
2023-06-02T02:16:00,mfh,34.17
2023-06-02T02:17:00,mfh,34.36
2023-06-02T02:18:00,mfh,34.38
2023-06-02T02:19:00,mfh,34.34
2023-06-02T02:20:00,mfh,33.62
2023-06-02T02:21:00,mfh,31.92
2023-06-02T02:22:00,mfh,32.00
2023-06-02T02:23:00,mfh,31.93
2023-06-02T02:24:00,mfh,32.59
2023-06-02T02:25:00,mfh,32.71
2023-06-02T02:26:00,mfh,32.83
2023-06-02T02:27:00,mfh,32.90
2023-06-02T02:28:00,mfh,32.88
2023-06-02T02:29:00,mfh,32.26
2023-06-02T02:30:00,mfh,32.03
2023-06-02T02:31:00,mfh,31.96
2023-06-02T02:32:00,mfh,32.36
2023-06-02T02:33:00,mfh,32.66
2023-06-02T02:34:00,mfh,32.60
2023-06-02T02:35:00,mfh,32.52
2023-06-02T02:36:00,mfh,32.60
2023-06-02T02:37:00,mfh,32.86
2023-06-02T02:38:00,mfh,31.91
2023-06-02T02:39:00,mfh,31.91
2023-06-02T02:40:00,mfh,31.95
2023-06-02T02:41:00,mfh,32.54
2023-06-02T02:42:00,mfh,32.47
2023-06-02T02:43:00,mfh,33.30
2023-06-02T02:44:00,mfh,32.38
2023-06-02T02:45:00,mfh,32.49
2023-06-02T02:46:00,mfh,31.75
2023-06-02T02:47:00,mfh,31.79
2023-06-02T02:48:00,mfh,31.78
2023-06-02T02:49:00,mfh,31.83
2023-06-02T02:50:00,mfh,32.47
2023-06-02T02:51:00,mfh,32.43
2023-06-02T02:52:00,mfh,32.50
2023-06-02T02:53:00,mfh,32.55
2023-06-02T02:54:00,mfh,32.45
2023-06-02T02:55:00,mfh,32.17
2023-06-02T02:56:00,mfh,31.84
2023-06-02T02:57:00,mfh,31.77
2023-06-02T02:58:00,mfh,31.86
2023-06-02T02:59:00,mfh,32.66
2023-06-02T03:00:00,mfh,32.89
2023-06-02T03:01:00,mfh,32.88
2023-06-02T03:02:00,mfh,32.80
2023-06-02T03:03:00,mfh,32.75
2023-06-02T03:04:00,mfh,32.06
2023-06-02T03:05:00,mfh,31.98
2023-06-02T03:06:00,mfh,32.48
2023-06-02T03:07:00,mfh,32.95
2023-06-02T03:08:00,mfh,32.87
2023-06-02T03:09:00,mfh,32.95
2023-06-02T03:10:00,mfh,33.71
2023-06-02T03:11:00,mfh,33.70
2023-06-02T03:12:00,mfh,32.95
2023-06-02T03:13:00,mfh,33.18
2023-06-02T03:14:00,mfh,32.81
2023-06-02T03:15:00,mfh,33.01
2023-06-02T03:16:00,mfh,32.67
2023-06-02T03:17:00,mfh,32.67
2023-06-02T03:18:00,mfh,32.64
2023-06-02T03:19:00,mfh,32.66
2023-06-02T03:20:00,mfh,32.92
2023-06-02T03:21:00,mfh,32.22
2023-06-02T03:22:00,mfh,32.22
2023-06-02T03:23:00,mfh,31.97
2023-06-02T03:24:00,mfh,32.45
2023-06-02T03:25:00,mfh,40.96
2023-06-02T03:26:00,mfh,41.94
2023-06-02T03:27:00,mfh,42.00
2023-06-02T03:28:00,mfh,42.07
2023-06-02T03:29:00,mfh,42.00
2023-06-02T03:30:00,mfh,41.73
2023-06-02T03:31:00,mfh,41.40
2023-06-02T03:32:00,mfh,41.26
2023-06-02T03:33:00,mfh,41.84
2023-06-02T03:34:00,mfh,41.78
2023-06-02T03:35:00,mfh,42.84
2023-06-02T03:36:00,mfh,42.87
2023-06-02T03:37:00,mfh,42.76
2023-06-02T03:38:00,mfh,42.33
2023-06-02T03:39:00,mfh,42.11
2023-06-02T03:40:00,mfh,42.09
2023-06-02T03:41:00,mfh,42.12
2023-06-02T03:42:00,mfh,42.60
2023-06-02T03:43:00,mfh,42.75
2023-06-02T03:44:00,mfh,42.57
2023-06-02T03:45:00,mfh,42.50
2023-06-02T03:46:00,mfh,42.51
2023-06-02T03:47:00,mfh,41.87
2023-06-02T03:48:00,mfh,40.78
2023-06-02T03:49:00,mfh,41.44
2023-06-02T03:50:00,mfh,41.58
2023-06-02T03:51:00,mfh,41.42
2023-06-02T03:52:00,mfh,41.40
2023-06-02T03:53:00,mfh,41.42
2023-06-02T03:54:00,mfh,42.45
2023-06-02T03:55:00,mfh,42.55
2023-06-02T03:56:00,mfh,41.84
2023-06-02T03:57:00,mfh,41.82
2023-06-02T03:58:00,mfh,41.94
2023-06-02T03:59:00,mfh,42.53
2023-06-02T04:00:00,mfh,42.70
2023-06-02T04:01:00,mfh,42.04
2023-06-02T04:02:00,mfh,42.67
2023-06-02T04:03:00,mfh,42.64
2023-06-02T04:04:00,mfh,52.11
2023-06-02T04:05:00,mfh,50.60
2023-06-02T04:06:00,mfh,50.21
2023-06-02T04:07:00,mfh,41.61
2023-06-02T04:08:00,mfh,41.63
2023-06-02T04:09:00,mfh,42.35
2023-06-02T04:10:00,mfh,42.32
2023-06-02T04:11:00,mfh,42.29
2023-06-02T04:12:00,mfh,42.29
2023-06-02T04:13:00,mfh,42.49
2023-06-02T04:14:00,mfh,41.86
2023-06-02T04:15:00,mfh,42.24
2023-06-02T04:16:00,mfh,41.77
2023-06-02T04:17:00,mfh,41.76
2023-06-02T04:18:00,mfh,42.39
2023-06-02T04:19:00,mfh,42.34
2023-06-02T04:20:00,mfh,42.32
2023-06-02T04:21:00,mfh,43.69
2023-06-02T04:22:00,mfh,42.97
2023-06-02T04:23:00,mfh,42.99
2023-06-02T04:24:00,mfh,43.06
2023-06-02T04:25:00,mfh,43.15
2023-06-02T04:26:00,mfh,44.03
2023-06-02T04:27:00,mfh,44.34
2023-06-02T04:28:00,mfh,43.43
2023-06-02T04:29:00,mfh,43.29
2023-06-02T04:30:00,mfh,43.29
2023-06-02T04:31:00,mfh,42.69
2023-06-02T04:32:00,mfh,42.46
2023-06-02T04:33:00,mfh,42.48
2023-06-02T04:34:00,mfh,42.53
2023-06-02T04:35:00,mfh,43.15
2023-06-02T04:36:00,mfh,43.03
2023-06-02T04:37:00,mfh,43.51
2023-06-02T04:38:00,mfh,43.58
2023-06-02T04:39:00,mfh,43.14
2023-06-02T04:40:00,mfh,42.50
2023-06-02T04:41:00,mfh,42.51
2023-06-02T04:42:00,mfh,42.50
2023-06-02T04:43:00,mfh,42.50
2023-06-02T04:44:00,mfh,43.65
2023-06-02T04:45:00,mfh,43.31
2023-06-02T04:46:00,mfh,43.20
2023-06-02T04:47:00,mfh,43.31
2023-06-02T04:48:00,mfh,44.87
2023-06-02T04:49:00,mfh,44.00
2023-06-02T04:50:00,mfh,44.30
2023-06-02T04:51:00,mfh,44.29
2023-06-02T04:52:00,mfh,44.26
2023-06-02T04:53:00,mfh,44.91
2023-06-02T04:54:00,mfh,45.24
2023-06-02T04:55:00,mfh,45.03
2023-06-02T04:56:00,mfh,46.73
2023-06-02T04:57:00,mfh,46.79
2023-06-02T04:58:00,mfh,46.03
2023-06-02T04:59:00,mfh,45.98
2023-06-02T05:00:00,mfh,44.90
2023-06-02T05:01:00,mfh,65.80
2023-06-02T05:02:00,mfh,64.21
2023-06-02T05:03:00,mfh,65.40
2023-06-02T05:04:00,mfh,64.12
2023-06-02T05:05:00,mfh,63.47
2023-06-02T05:06:00,mfh,63.10
2023-06-02T05:07:00,mfh,63.10
2023-06-02T05:08:00,mfh,63.19
2023-06-02T05:09:00,mfh,63.09
2023-06-02T05:10:00,mfh,63.01
2023-06-02T05:11:00,mfh,63.71
2023-06-02T05:12:00,mfh,63.57
2023-06-02T05:13:00,mfh,63.52
2023-06-02T05:14:00,mfh,63.59
2023-06-02T05:15:00,mfh,63.01
2023-06-02T05:16:00,mfh,63.05
2023-06-02T05:17:00,mfh,63.03
2023-06-02T05:18:00,mfh,63.99
2023-06-02T05:19:00,mfh,63.70
2023-06-02T05:20:00,mfh,63.00
2023-06-02T05:21:00,mfh,62.80
2023-06-02T05:22:00,mfh,62.61
2023-06-02T05:23:00,mfh,62.56
2023-06-02T05:24:00,mfh,61.94
2023-06-02T05:25:00,mfh,62.00
2023-06-02T05:26:00,mfh,61.19
2023-06-02T05:27:00,mfh,61.33
2023-06-02T05:28:00,mfh,62.44
2023-06-02T05:29:00,mfh,62.47
2023-06-02T05:30:00,mfh,62.79
2023-06-02T05:31:00,mfh,62.59
2023-06-02T05:32:00,mfh,62.12
2023-06-02T05:33:00,mfh,61.41
2023-06-02T05:34:00,mfh,61.81
2023-06-02T05:35:00,mfh,61.78
2023-06-02T05:36:00,mfh,63.87
2023-06-02T05:37:00,mfh,63.36
2023-06-02T05:38:00,mfh,63.26
2023-06-02T05:39:00,mfh,63.23
2023-06-02T05:40:00,mfh,63.40
2023-06-02T05:41:00,mfh,62.29
2023-06-02T05:42:00,mfh,61.83
2023-06-02T05:43:00,mfh,61.89
2023-06-02T05:44:00,mfh,61.84
2023-06-02T05:45:00,mfh,61.80
2023-06-02T05:46:00,mfh,62.09
2023-06-02T05:47:00,mfh,62.25
2023-06-02T05:48:00,mfh,62.59
2023-06-02T05:49:00,mfh,63.01
2023-06-02T05:50:00,mfh,61.93
2023-06-02T05:51:00,mfh,61.21
2023-06-02T05:52:00,mfh,61.44
2023-06-02T05:53:00,mfh,61.09
2023-06-02T05:54:00,mfh,61.75
2023-06-02T05:55:00,mfh,61.68
2023-06-02T05:56:00,mfh,61.89
2023-06-02T05:57:00,mfh,61.47
2023-06-02T05:58:00,mfh,61.72
2023-06-02T05:59:00,mfh,60.58
2023-06-02T06:00:00,mfh,60.57
2023-06-02T06:01:00,mfh,65.16
2023-06-02T06:02:00,mfh,65.12
2023-06-02T06:03:00,mfh,65.73
2023-06-02T06:04:00,mfh,66.01
2023-06-02T06:05:00,mfh,65.98
2023-06-02T06:06:00,mfh,66.05
2023-06-02T06:07:00,mfh,66.08
2023-06-02T06:08:00,mfh,65.71
2023-06-02T06:09:00,mfh,65.77
2023-06-02T06:10:00,mfh,65.09
2023-06-02T06:11:00,mfh,65.02
2023-06-02T06:12:00,mfh,65.00
2023-06-02T06:13:00,mfh,65.60
2023-06-02T06:14:00,mfh,65.62
2023-06-02T06:15:00,mfh,66.23
2023-06-02T06:16:00,mfh,65.94
2023-06-02T06:17:00,mfh,66.34
2023-06-02T06:18:00,mfh,66.26
2023-06-02T06:19:00,mfh,66.58
2023-06-02T06:20:00,mfh,66.27
2023-06-02T06:21:00,mfh,65.75
2023-06-02T06:22:00,mfh,65.65
2023-06-02T06:23:00,mfh,66.01
2023-06-02T06:24:00,mfh,66.41
2023-06-02T06:25:00,mfh,66.35
2023-06-02T06:26:00,mfh,67.14
2023-06-02T06:27:00,mfh,67.06
2023-06-02T06:28:00,mfh,67.19
2023-06-02T06:29:00,mfh,66.95
2023-06-02T06:30:00,mfh,67.07
2023-06-02T06:31:00,mfh,66.08
2023-06-02T06:32:00,mfh,65.51
2023-06-02T06:33:00,mfh,65.75
2023-06-02T06:34:00,mfh,66.65
2023-06-02T06:35:00,mfh,65.98
2023-06-02T06:36:00,mfh,66.23
2023-06-02T06:37:00,mfh,67.29
2023-06-02T06:38:00,mfh,66.33
2023-06-02T06:39:00,mfh,66.07
2023-06-02T06:40:00,mfh,66.20
2023-06-02T06:41:00,mfh,66.24
2023-06-02T06:42:00,mfh,66.76
2023-06-02T06:43:00,mfh,65.59
2023-06-02T06:44:00,mfh,65.73
2023-06-02T06:45:00,mfh,66.44
2023-06-02T06:46:00,mfh,66.34
2023-06-02T06:47:00,mfh,66.42
2023-06-02T06:48:00,mfh,66.47
2023-06-02T06:49:00,mfh,66.38
2023-06-02T06:50:00,mfh,66.26
2023-06-02T06:51:00,mfh,66.12
2023-06-02T06:52:00,mfh,66.60
2023-06-02T06:53:00,mfh,65.70
2023-06-02T06:54:00,mfh,66.39
2023-06-02T06:55:00,mfh,66.68
2023-06-02T06:56:00,mfh,66.64
2023-06-02T06:57:00,mfh,66.60
2023-06-02T06:58:00,mfh,67.20
2023-06-02T06:59:00,mfh,66.17
2023-06-02T07:00:00,mfh,66.37
2023-06-02T07:01:00,mfh,66.37
2023-06-02T07:02:00,mfh,66.35
2023-06-02T07:03:00,mfh,66.14
2023-06-02T07:04:00,mfh,65.64
2023-06-02T07:05:00,mfh,65.25
2023-06-02T07:06:00,mfh,65.40
2023-06-02T07:07:00,mfh,66.42
2023-06-02T07:08:00,mfh,66.78
2023-06-02T07:09:00,mfh,65.85
2023-06-02T07:10:00,mfh,65.85
2023-06-02T07:11:00,mfh,65.67
2023-06-02T07:12:00,mfh,65.46
2023-06-02T07:13:00,mfh,65.60
2023-06-02T07:14:00,mfh,65.49
2023-06-02T07:15:00,mfh,65.38
2023-06-02T07:16:00,mfh,65.29
2023-06-02T07:17:00,mfh,65.17
2023-06-02T07:18:00,mfh,65.79
2023-06-02T07:19:00,mfh,65.53
2023-06-02T07:20:00,mfh,65.41
2023-06-02T07:21:00,mfh,65.23
2023-06-02T07:22:00,mfh,65.43
2023-06-02T07:23:00,mfh,66.15
2023-06-02T07:24:00,mfh,65.56
2023-06-02T07:25:00,mfh,65.89
2023-06-02T07:26:00,mfh,65.24
2023-06-02T07:27:00,mfh,65.24
2023-06-02T07:28:00,mfh,65.28
2023-06-02T07:29:00,mfh,65.47
2023-06-02T07:30:00,mfh,65.60
2023-06-02T07:31:00,mfh,66.18
2023-06-02T07:32:00,mfh,65.62
2023-06-02T07:33:00,mfh,65.78
2023-06-02T07:34:00,mfh,66.92
2023-06-02T07:35:00,mfh,65.70
2023-06-02T07:36:00,mfh,65.04
2023-06-02T07:37:00,mfh,64.84
2023-06-02T07:38:00,mfh,65.28
2023-06-02T07:39:00,mfh,65.54
2023-06-02T07:40:00,mfh,66.32
2023-06-02T07:41:00,mfh,65.46
2023-06-02T07:42:00,mfh,65.59
2023-06-02T07:43:00,mfh,65.50
2023-06-02T07:44:00,mfh,65.66
2023-06-02T07:45:00,mfh,66.32
2023-06-02T07:46:00,mfh,65.49
2023-06-02T07:47:00,mfh,64.92
2023-06-02T07:48:00,mfh,66.41
2023-06-02T07:49:00,mfh,66.51
2023-06-02T07:50:00,mfh,68.12
2023-06-02T07:51:00,mfh,68.31
2023-06-02T07:52:00,mfh,67.53
2023-06-02T07:53:00,mfh,65.78
2023-06-02T07:54:00,mfh,65.88
2023-06-02T07:55:00,mfh,66.00
2023-06-02T07:56:00,mfh,65.84
2023-06-02T07:57:00,mfh,65.29
2023-06-02T07:58:00,mfh,65.18
2023-06-02T07:59:00,mfh,65.30
2023-06-02T08:00:00,mfh,66.29
2023-06-02T08:01:00,mfh,65.94
2023-06-02T08:02:00,mfh,65.89
2023-06-02T08:03:00,mfh,65.88
2023-06-02T08:04:00,mfh,66.00
2023-06-02T08:05:00,mfh,65.97
2023-06-02T08:06:00,mfh,66.03
2023-06-02T08:07:00,mfh,65.76
2023-06-02T08:08:00,mfh,65.56
2023-06-02T08:09:00,mfh,65.79
2023-06-02T08:10:00,mfh,64.94
2023-06-02T08:11:00,mfh,64.96
2023-06-02T08:12:00,mfh,65.76
2023-06-02T08:13:00,mfh,65.70
2023-06-02T08:14:00,mfh,65.59
2023-06-02T08:15:00,mfh,66.44
2023-06-02T08:16:00,mfh,65.97
2023-06-02T08:17:00,mfh,66.22
2023-06-02T08:18:00,mfh,65.91
2023-06-02T08:19:00,mfh,65.69
2023-06-02T08:20:00,mfh,65.42
2023-06-02T08:21:00,mfh,64.71
2023-06-02T08:22:00,mfh,64.78
2023-06-02T08:23:00,mfh,65.44
2023-06-02T08:24:00,mfh,65.44
2023-06-02T08:25:00,mfh,65.45
2023-06-02T08:26:00,mfh,65.50
2023-06-02T08:27:00,mfh,65.32
2023-06-02T08:28:00,mfh,65.58
2023-06-02T08:29:00,mfh,65.27
2023-06-02T08:30:00,mfh,65.45
2023-06-02T08:31:00,mfh,65.09
2023-06-02T08:32:00,mfh,65.95
2023-06-02T08:33:00,mfh,65.81
2023-06-02T08:34:00,mfh,65.60
2023-06-02T08:35:00,mfh,65.56
2023-06-02T08:36:00,mfh,65.22
2023-06-02T08:37:00,mfh,65.31
2023-06-02T08:38:00,mfh,66.22
2023-06-02T08:39:00,mfh,65.19
2023-06-02T08:40:00,mfh,65.21
2023-06-02T08:41:00,mfh,64.31
2023-06-02T08:42:00,mfh,64.52
2023-06-02T08:43:00,mfh,64.20
2023-06-02T08:44:00,mfh,66.48
2023-06-02T08:45:00,mfh,65.64
2023-06-02T08:46:00,mfh,65.56
2023-06-02T08:47:00,mfh,65.61
2023-06-02T08:48:00,mfh,66.05
2023-06-02T08:49:00,mfh,65.87
2023-06-02T08:50:00,mfh,65.94
2023-06-02T08:51:00,mfh,67.40
2023-06-02T08:52:00,mfh,66.34
2023-06-02T08:53:00,mfh,65.35
2023-06-02T08:54:00,mfh,65.11
2023-06-02T08:55:00,mfh,65.21
2023-06-02T08:56:00,mfh,65.86
2023-06-02T08:57:00,mfh,65.86
2023-06-02T08:58:00,mfh,65.94
2023-06-02T08:59:00,mfh,65.90
2023-06-02T09:00:00,mfh,66.84
2023-06-02T09:01:00,mfh,65.69
2023-06-02T09:02:00,mfh,65.58
2023-06-02T09:03:00,mfh,65.09
2023-06-02T09:04:00,mfh,64.80
2023-06-02T09:05:00,mfh,64.94
2023-06-02T09:06:00,mfh,65.60
2023-06-02T09:07:00,mfh,65.71
2023-06-02T09:08:00,mfh,66.14
2023-06-02T09:09:00,mfh,65.59
2023-06-02T09:10:00,mfh,65.54
2023-06-02T09:11:00,mfh,65.54
2023-06-02T09:12:00,mfh,65.45
2023-06-02T09:13:00,mfh,65.38
2023-06-02T09:14:00,mfh,65.92
2023-06-02T09:15:00,mfh,64.89
2023-06-02T09:16:00,mfh,64.93
2023-06-02T09:17:00,mfh,66.47
2023-06-02T09:18:00,mfh,65.66
2023-06-02T09:19:00,mfh,65.73
2023-06-02T09:20:00,mfh,65.68
2023-06-02T09:21:00,mfh,66.09
2023-06-02T09:22:00,mfh,66.14
2023-06-02T09:23:00,mfh,66.13
2023-06-02T09:24:00,mfh,66.12
2023-06-02T09:25:00,mfh,64.95
2023-06-02T09:26:00,mfh,65.04
2023-06-02T09:27:00,mfh,66.16
2023-06-02T09:28:00,mfh,66.03
2023-06-02T09:29:00,mfh,66.29
2023-06-02T09:30:00,mfh,66.40
2023-06-02T09:31:00,mfh,66.29
2023-06-02T09:32:00,mfh,67.10
2023-06-02T09:33:00,mfh,66.23
2023-06-02T09:34:00,mfh,66.49
2023-06-02T09:35:00,mfh,66.26
2023-06-02T09:36:00,mfh,65.56
2023-06-02T09:37:00,mfh,65.75
2023-06-02T09:38:00,mfh,65.82
2023-06-02T09:39:00,mfh,66.28
2023-06-02T09:40:00,mfh,66.22
2023-06-02T09:41:00,mfh,66.45
2023-06-02T09:42:00,mfh,65.68
2023-06-02T09:43:00,mfh,65.51
2023-06-02T09:44:00,mfh,65.66
2023-06-02T09:45:00,mfh,65.57
2023-06-02T09:46:00,mfh,65.16
2023-06-02T09:47:00,mfh,65.58
2023-06-02T09:48:00,mfh,65.58
2023-06-02T09:49:00,mfh,66.17
2023-06-02T09:50:00,mfh,66.17
2023-06-02T09:51:00,mfh,66.84
2023-06-02T09:52:00,mfh,68.61
2023-06-02T09:53:00,mfh,67.02
2023-06-02T09:54:00,mfh,68.16
2023-06-02T09:55:00,mfh,66.75
2023-06-02T09:56:00,mfh,66.66
2023-06-02T09:57:00,mfh,66.36
2023-06-02T09:58:00,mfh,66.85
2023-06-02T09:59:00,mfh,66.88
2023-06-02T10:00:00,mfh,67.13
2023-06-02T10:01:00,mfh,67.83
2023-06-02T10:02:00,mfh,68.39
2023-06-02T10:03:00,mfh,68.35
2023-06-02T10:04:00,mfh,67.50
2023-06-02T10:05:00,mfh,67.24
2023-06-02T10:06:00,mfh,67.31
2023-06-02T10:07:00,mfh,67.41
2023-06-02T10:08:00,mfh,67.70
2023-06-02T10:09:00,mfh,66.63
2023-06-02T10:10:00,mfh,66.80
2023-06-02T10:11:00,mfh,66.71
2023-06-02T10:12:00,mfh,67.26
2023-06-02T10:13:00,mfh,67.20
2023-06-02T10:14:00,mfh,67.06
2023-06-02T10:15:00,mfh,67.04
2023-06-02T10:16:00,mfh,67.12
2023-06-02T10:17:00,mfh,67.10
2023-06-02T10:18:00,mfh,67.25
2023-06-02T10:19:00,mfh,67.87
2023-06-02T10:20:00,mfh,67.17
2023-06-02T10:21:00,mfh,66.58
2023-06-02T10:22:00,mfh,66.40
2023-06-02T10:23:00,mfh,67.26
2023-06-02T10:24:00,mfh,67.49
2023-06-02T10:25:00,mfh,67.28
2023-06-02T10:26:00,mfh,66.99
2023-06-02T10:27:00,mfh,67.40
2023-06-02T10:28:00,mfh,67.54
2023-06-02T10:29:00,mfh,67.38
2023-06-02T10:30:00,mfh,66.74
2023-06-02T10:31:00,mfh,66.62
2023-06-02T10:32:00,mfh,66.78
2023-06-02T10:33:00,mfh,67.01
2023-06-02T10:34:00,mfh,67.11
2023-06-02T10:35:00,mfh,67.06
2023-06-02T10:36:00,mfh,67.91
2023-06-02T10:37:00,mfh,67.59
2023-06-02T10:38:00,mfh,67.36
2023-06-02T10:39:00,mfh,67.66
2023-06-02T10:40:00,mfh,67.64
2023-06-02T10:41:00,mfh,68.31
2023-06-02T10:42:00,mfh,67.88
2023-06-02T10:43:00,mfh,68.20
2023-06-02T10:44:00,mfh,68.96
2023-06-02T10:45:00,mfh,68.99
2023-06-02T10:46:00,mfh,68.00
2023-06-02T10:47:00,mfh,68.73
2023-06-02T10:48:00,mfh,68.53
2023-06-02T10:49:00,mfh,68.56
2023-06-02T10:50:00,mfh,68.50
2023-06-02T10:51:00,mfh,68.57
2023-06-02T10:52:00,mfh,68.22
2023-06-02T10:53:00,mfh,68.11
2023-06-02T10:54:00,mfh,68.56
2023-06-02T10:55:00,mfh,69.08
2023-06-02T10:56:00,mfh,69.39
2023-06-02T10:57:00,mfh,69.19
2023-06-02T10:58:00,mfh,69.18
2023-06-02T10:59:00,mfh,68.67
2023-06-02T11:00:00,mfh,69.18
2023-06-02T11:01:00,mfh,68.88
2023-06-02T11:02:00,mfh,68.97
2023-06-02T11:03:00,mfh,68.34
2023-06-02T11:04:00,mfh,68.16
2023-06-02T11:05:00,mfh,68.43
2023-06-02T11:06:00,mfh,69.17
2023-06-02T11:07:00,mfh,69.12
2023-06-02T11:08:00,mfh,68.99
2023-06-02T11:09:00,mfh,69.19
2023-06-02T11:10:00,mfh,69.16
2023-06-02T11:11:00,mfh,69.33
2023-06-02T11:12:00,mfh,69.28
2023-06-02T11:13:00,mfh,68.43
2023-06-02T11:14:00,mfh,68.48
2023-06-02T11:15:00,mfh,68.83
2023-06-02T11:16:00,mfh,68.92
2023-06-02T11:17:00,mfh,69.00
2023-06-02T11:18:00,mfh,70.12
2023-06-02T11:19:00,mfh,69.47
2023-06-02T11:20:00,mfh,69.11
2023-06-02T11:21:00,mfh,69.21
2023-06-02T11:22:00,mfh,68.90
2023-06-02T11:23:00,mfh,69.00
2023-06-02T11:24:00,mfh,69.28
2023-06-02T11:25:00,mfh,67.62
2023-06-02T11:26:00,mfh,68.16
2023-06-02T11:27:00,mfh,67.89
2023-06-02T11:28:00,mfh,68.00
2023-06-02T11:29:00,mfh,68.26
2023-06-02T11:30:00,mfh,68.44
2023-06-02T11:31:00,mfh,69.55
2023-06-02T11:32:00,mfh,70.52
2023-06-02T11:33:00,mfh,70.07
2023-06-02T11:34:00,mfh,69.66
2023-06-02T11:35:00,mfh,69.08
2023-06-02T11:36:00,mfh,67.30
2023-06-02T11:37:00,mfh,68.02
2023-06-02T11:38:00,mfh,69.07
2023-06-02T11:39:00,mfh,67.74
2023-06-02T11:40:00,mfh,67.61
2023-06-02T11:41:00,mfh,67.87
2023-06-02T11:42:00,mfh,67.64
2023-06-02T11:43:00,mfh,68.02
2023-06-02T11:44:00,mfh,67.83
2023-06-02T11:45:00,mfh,67.64
2023-06-02T11:46:00,mfh,67.64
2023-06-02T11:47:00,mfh,67.03
2023-06-02T11:48:00,mfh,67.52
2023-06-02T11:49:00,mfh,67.00
2023-06-02T11:50:00,mfh,68.06
2023-06-02T11:51:00,mfh,68.18
2023-06-02T11:52:00,mfh,68.17
2023-06-02T11:53:00,mfh,68.32
2023-06-02T11:54:00,mfh,68.27
2023-06-02T11:55:00,mfh,67.95
2023-06-02T11:56:00,mfh,67.82
2023-06-02T11:57:00,mfh,67.46
2023-06-02T11:58:00,mfh,67.84
2023-06-02T11:59:00,mfh,66.79
2023-06-02T12:00:00,mfh,66.74
2023-06-02T12:01:00,mfh,67.56
2023-06-02T12:02:00,mfh,67.55
2023-06-02T12:03:00,mfh,67.49
2023-06-02T12:04:00,mfh,67.38
2023-06-02T12:05:00,mfh,68.08
2023-06-02T12:06:00,mfh,67.31
2023-06-02T12:07:00,mfh,67.75
2023-06-02T12:08:00,mfh,67.49
2023-06-02T12:09:00,mfh,66.59
2023-06-02T12:10:00,mfh,66.55
2023-06-02T12:11:00,mfh,66.92
2023-06-02T12:12:00,mfh,67.47
2023-06-02T12:13:00,mfh,67.83
2023-06-02T12:14:00,mfh,67.62
2023-06-02T12:15:00,mfh,67.29
2023-06-02T12:16:00,mfh,67.57
2023-06-02T12:17:00,mfh,67.74
2023-06-02T12:18:00,mfh,67.72
2023-06-02T12:19:00,mfh,66.87
2023-06-02T12:20:00,mfh,66.97
2023-06-02T12:21:00,mfh,66.74
2023-06-02T12:22:00,mfh,67.48
2023-06-02T12:23:00,mfh,67.22
2023-06-02T12:24:00,mfh,67.33
2023-06-02T12:25:00,mfh,67.34
2023-06-02T12:26:00,mfh,67.25
2023-06-02T12:27:00,mfh,67.16
2023-06-02T12:28:00,mfh,67.04
2023-06-02T12:29:00,mfh,68.00
2023-06-02T12:30:00,mfh,68.15
2023-06-02T12:31:00,mfh,66.73
2023-06-02T12:32:00,mfh,66.65
2023-06-02T12:33:00,mfh,66.69
2023-06-02T12:34:00,mfh,67.12
2023-06-02T12:35:00,mfh,67.03
2023-06-02T12:36:00,mfh,66.67
2023-06-02T12:37:00,mfh,66.74
2023-06-02T12:38:00,mfh,67.35
2023-06-02T12:39:00,mfh,66.96
2023-06-02T12:40:00,mfh,65.79
2023-06-02T12:41:00,mfh,65.15
2023-06-02T12:42:00,mfh,65.14
2023-06-02T12:43:00,mfh,65.06
2023-06-02T12:44:00,mfh,66.92
2023-06-02T12:45:00,mfh,67.24
2023-06-02T12:46:00,mfh,67.00
2023-06-02T12:47:00,mfh,67.17
2023-06-02T12:48:00,mfh,67.03
2023-06-02T12:49:00,mfh,67.00
2023-06-02T12:50:00,mfh,67.02
2023-06-02T12:51:00,mfh,67.01
2023-06-02T12:52:00,mfh,67.19
2023-06-02T12:53:00,mfh,66.53
2023-06-02T12:54:00,mfh,66.29
2023-06-02T12:55:00,mfh,67.11
2023-06-02T12:56:00,mfh,67.10
2023-06-02T12:57:00,mfh,67.06
2023-06-02T12:58:00,mfh,67.05
2023-06-02T12:59:00,mfh,67.22
2023-06-02T13:00:00,mfh,68.05
2023-06-02T13:01:00,mfh,66.96
2023-06-02T13:02:00,mfh,66.95
2023-06-02T13:03:00,mfh,66.23
2023-06-02T13:04:00,mfh,66.32
2023-06-02T13:05:00,mfh,66.43
2023-06-02T13:06:00,mfh,67.35
2023-06-02T13:07:00,mfh,67.66
2023-06-02T13:08:00,mfh,67.71
2023-06-02T13:09:00,mfh,67.42
2023-06-02T13:10:00,mfh,67.64
2023-06-02T13:11:00,mfh,67.20
2023-06-02T13:12:00,mfh,67.47
2023-06-02T13:13:00,mfh,67.54
2023-06-02T13:14:00,mfh,66.74
2023-06-02T13:15:00,mfh,66.78
2023-06-02T13:16:00,mfh,66.80
2023-06-02T13:17:00,mfh,66.93
2023-06-02T13:18:00,mfh,66.76